| time (UTC) | temp F | wind direction | speed MPH | gust MPH | rain 1hr in | rain 24hr in | rain mn in | humidity % | barometer mb |
| 20260502194502 | 78 | 107 | 11.0 | 16.0 | 0.00 | 0.00 | 0.00 | 20 | 1016.3 |
| 20260502193504 | 77 | 96 | 12.0 | 19.0 | 0.00 | 0.00 | 0.00 | 20 | 1016.5 |
| 20260502192503 | 78 | 115 | 12.0 | 15.0 | 0.00 | 0.00 | 0.00 | 20 | 1016.6 |
| 20260502192002 | 77 | 99 | 12.0 | 19.0 | 0.00 | 0.00 | 0.00 | 21 | 1016.6 |
| 20260502191502 | 77 | 97 | 11.0 | 19.0 | 0.00 | 0.00 | 0.00 | 21 | 1016.7 |
| 20260502191003 | 78 | 86 | 10.0 | 17.0 | 0.00 | 0.00 | 0.00 | 20 | 1016.8 |
| 20260502190502 | 77 | 109 | 11.0 | 17.0 | 0.00 | 0.00 | 0.00 | 21 | 1016.7 |
| 20260502190002 | 77 | 87 | 11.0 | 18.0 | 0.00 | 0.00 | 0.00 | 20 | 1016.8 |
| 20260502185503 | 78 | 100 | 10.0 | 18.0 | 0.00 | 0.00 | 0.00 | 20 | 1017.0 |
| 20260502185004 | 77 | 106 | 11.0 | 17.0 | 0.00 | 0.00 | 0.00 | 21 | 1016.9 |
| 20260502184003 | 77 | 97 | 11.0 | 19.0 | 0.00 | 0.00 | 0.00 | 21 | 1016.9 |
| 20260502183502 | 77 | 87 | 10.0 | 15.0 | 0.00 | 0.00 | 0.00 | 22 | 1016.9 |
| 20260502183003 | 77 | 76 | 10.0 | 18.0 | 0.00 | 0.00 | 0.00 | 21 | 1017.1 |
| 20260502182502 | 77 | 108 | 11.0 | 15.0 | 0.00 | 0.00 | 0.00 | 22 | 1017.0 |
| 20260502182002 | 76 | 117 | 11.0 | 20.0 | 0.00 | 0.00 | 0.00 | 22 | 1016.9 |
| 20260502181503 | 76 | 83 | 12.0 | 17.0 | 0.00 | 0.00 | 0.00 | 22 | 1017.1 |
| 20260502181002 | 76 | 104 | 13.0 | 21.0 | 0.00 | 0.00 | 0.00 | 22 | 1017.0 |
| 20260502180503 | 76 | 108 | 12.0 | 19.0 | 0.00 | 0.00 | 0.00 | 22 | 1017.0 |
| 20260502170502 | 74 | 107 | 10.0 | 16.0 | 0.00 | 0.00 | 0.00 | 27 | 1017.4 |
| 20260502164002 | 72 | 86 | 10.0 | 17.0 | 0.00 | 0.00 | 0.00 | 30 | 1017.0 |
| 20260502163503 | 72 | 94 | 10.0 | 18.0 | 0.00 | 0.00 | 0.00 | 31 | 1017.0 |
| 20260502163002 | 72 | 86 | 11.0 | 14.0 | 0.00 | 0.00 | 0.00 | 32 | 1017.0 |
| 20260502162502 | 72 | 90 | 10.0 | 16.0 | 0.00 | 0.00 | 0.00 | 32 | 1017.0 |
| 20260502162003 | 72 | 88 | 10.0 | 14.0 | 0.00 | 0.00 | 0.00 | 33 | 1017.1 |
| 20260502161503 | 72 | 89 | 9.0 | 16.0 | 0.00 | 0.00 | 0.00 | 34 | 1017.1 |
| 20260502160504 | 71 | 93 | 10.0 | 14.0 | 0.00 | 0.00 | 0.00 | 38 | 1017.1 |
| 20260502152002 | 64 | 62 | 3.0 | 5.0 | 0.00 | 0.00 | 0.00 | 52 | 1017.3 |
| 20260502151502 | 62 | 74 | 3.0 | 4.0 | 0.00 | 0.00 | 0.00 | 55 | 1017.4 |
| 20260502150502 | 59 | 78 | 1.0 | 6.0 | 0.00 | 0.00 | 0.00 | 60 | 1017.2 |
| 20260502123503 | 47 | 0 | 0.0 | 0.0 | 0.00 | 0.00 | 0.00 | 77 | 1016.2 |
| 20260502122503 | 47 | 143 | 1.0 | 4.0 | 0.00 | 0.00 | 0.00 | 77 | 1016.2 |
| 20260502122004 | 47 | 147 | 0.0 | 3.0 | 0.00 | 0.00 | 0.00 | 77 | 1016.1 |
| 20260502121503 | 47 | 0 | 0.0 | 0.0 | 0.00 | 0.00 | 0.00 | 78 | 1016.1 |
| 20260502121002 | 47 | 0 | 0.0 | 0.0 | 0.00 | 0.00 | 0.00 | 78 | 1016.1 |
| 20260502120503 | 47 | 0 | 0.0 | 0.0 | 0.00 | 0.00 | 0.00 | 78 | 1016.1 |
| 20260502115503 | 47 | 0 | 0.0 | 0.0 | 0.00 | 0.00 | 0.00 | 77 | 1016.2 |
| 20260502115003 | 47 | 0 | 0.0 | 0.0 | 0.00 | 0.00 | 0.00 | 77 | 1016.1 |
| 20260502114503 | 47 | 0 | 0.0 | 0.0 | 0.00 | 0.00 | 0.00 | 77 | 1016.1 |
| 20260502114002 | 47 | 0 | 0.0 | 0.0 | 0.00 | 0.00 | 0.00 | 77 | 1016.1 |
| 20260502113503 | 47 | 0 | 1.0 | 0.0 | 0.00 | 0.00 | 0.00 | 77 | 1016.3 |
| 20260502112502 | 48 | 137 | 1.0 | 1.0 | 0.00 | 0.00 | 0.00 | 77 | 1016.1 |
| 20260502112003 | 48 | 135 | 1.0 | 2.0 | 0.00 | 0.00 | 0.00 | 77 | 1016.2 |
| 20260502111503 | 48 | 137 | 1.0 | 2.0 | 0.00 | 0.00 | 0.00 | 77 | 1016.2 |
| 20260502110003 | 48 | 154 | 1.0 | 1.0 | 0.00 | 0.00 | 0.00 | 77 | 1016.4 |
| 20260502105003 | 48 | 137 | 0.0 | 3.0 | 0.00 | 0.00 | 0.00 | 77 | 1016.4 |
| 20260502104502 | 48 | 0 | 1.0 | 0.0 | 0.00 | 0.00 | 0.00 | 77 | 1016.4 |
| 20260502104003 | 48 | 135 | 1.0 | 7.0 | 0.00 | 0.00 | 0.00 | 77 | 1016.5 |
| 20260502103503 | 48 | 132 | 0.0 | 3.0 | 0.00 | 0.00 | 0.00 | 77 | 1016.4 |
| 20260502103003 | 48 | 149 | 0.0 | 2.0 | 0.00 | 0.00 | 0.00 | 77 | 1016.3 |
| 20260502102502 | 49 | 155 | 0.0 | 2.0 | 0.00 | 0.00 | 0.00 | 77 | 1016.3 |
| 20260502102002 | 49 | 150 | 0.0 | 4.0 | 0.00 | 0.00 | 0.00 | 77 | 1016.4 |
| 20260502101503 | 49 | 135 | 0.0 | 2.0 | 0.00 | 0.00 | 0.00 | 76 | 1016.4 |
| 20260502101003 | 49 | 0 | 0.0 | 0.0 | 0.00 | 0.00 | 0.00 | 75 | 1016.4 |
| 20260502100502 | 49 | 0 | 0.0 | 0.0 | 0.00 | 0.00 | 0.00 | 76 | 1016.4 |
| 20260502091003 | 51 | 119 | 1.0 | 9.0 | 0.00 | 0.00 | 0.00 | 73 | 1016.6 |
| 20260502070503 | 55 | 0 | 0.0 | 0.0 | 0.00 | 0.00 | 0.00 | 71 | 1017.1 |
| 20260502070006 | 55 | 0 | 0.0 | 0.0 | 0.00 | 0.00 | 0.00 | 71 | 1017.1 |
| 20260502065503 | 55 | 0 | 0.0 | 0.0 | 0.00 | 0.00 | 0.00 | 71 | 1017.2 |
| 20260502065003 | 55 | 0 | 0.0 | 0.0 | 0.00 | 0.00 | 0.00 | 70 | 1017.2 |
| 20260502064505 | 56 | 0 | 0.0 | 0.0 | 0.00 | 0.00 | 0.00 | 70 | 1017.2 |
| 20260502063002 | 56 | 0 | 0.0 | 0.0 | 0.00 | 0.00 | 0.00 | 69 | 1017.1 |
| 20260502062503 | 56 | 172 | 0.0 | 2.0 | 0.00 | 0.00 | 0.00 | 69 | 1017.2 |
| 20260502062003 | 56 | 0 | 0.0 | 0.0 | 0.00 | 0.00 | 0.00 | 68 | 1017.2 |
| 20260502061503 | 56 | 0 | 0.0 | 0.0 | 0.00 | 0.00 | 0.00 | 69 | 1017.2 |
| 20260502061003 | 57 | 0 | 0.0 | 0.0 | 0.00 | 0.00 | 0.00 | 68 | 1017.2 |
| 20260502060503 | 57 | 0 | 0.0 | 0.0 | 0.00 | 0.00 | 0.00 | 67 | 1017.1 |
| 20260502060003 | 58 | 0 | 0.0 | 0.0 | 0.00 | 0.00 | 0.00 | 66 | 1017.1 |
| 20260502055004 | 58 | 0 | 1.0 | 0.0 | 0.00 | 0.00 | 0.00 | 65 | 1017.2 |
| 20260502054504 | 58 | 190 | 1.0 | 2.0 | 0.00 | 0.00 | 0.00 | 65 | 1017.1 |
| 20260502054003 | 59 | 225 | 1.0 | 1.0 | 0.00 | 0.00 | 0.00 | 64 | 1017.1 |
| 20260502053503 | 59 | 205 | 1.0 | 2.0 | 0.00 | 0.00 | 0.00 | 64 | 1017.1 |
| 20260502052004 | 60 | 0 | 0.0 | 0.0 | 0.00 | 0.00 | 0.00 | 61 | 1017.3 |
| 20260502051003 | 61 | 0 | 0.0 | 0.0 | 0.00 | 0.00 | 0.00 | 60 | 1017.1 |
| 20260502050503 | 61 | 172 | 0.0 | 2.0 | 0.00 | 0.00 | 0.00 | 59 | 1017.1 |
| 20260502050003 | 61 | 173 | 1.0 | 2.0 | 0.00 | 0.00 | 0.00 | 59 | 1017.1 |
| 20260502045503 | 62 | 0 | 1.0 | 0.0 | 0.00 | 0.00 | 0.00 | 59 | 1017.1 |
| 20260502044504 | 62 | 160 | 3.0 | 2.0 | 0.00 | 0.00 | 0.00 | 58 | 1017.1 |
| 20260502044003 | 62 | 157 | 3.0 | 6.0 | 0.00 | 0.00 | 0.00 | 57 | 1017.0 |
| 20260502043503 | 63 | 156 | 2.0 | 6.0 | 0.00 | 0.00 | 0.00 | 57 | 1016.9 |
| 20260502043003 | 63 | 156 | 1.0 | 4.0 | 0.00 | 0.00 | 0.00 | 56 | 1016.9 |
| 20260502042503 | 64 | 158 | 1.0 | 1.0 | 0.00 | 0.00 | 0.00 | 55 | 1016.9 |
| 20260502041503 | 64 | 152 | 0.0 | 2.0 | 0.00 | 0.00 | 0.00 | 54 | 1016.8 |
| 20260502041004 | 65 | 0 | 0.0 | 0.0 | 0.00 | 0.00 | 0.00 | 53 | 1016.7 |
| 20260502040503 | 65 | 0 | 1.0 | 0.0 | 0.00 | 0.00 | 0.00 | 53 | 1016.6 |
| 20260502040004 | 65 | 149 | 1.0 | 3.0 | 0.00 | 0.00 | 0.00 | 53 | 1016.5 |
| 20260502035503 | 66 | 224 | 0.0 | 4.0 | 0.00 | 0.00 | 0.00 | 52 | 1016.5 |
| 20260502035003 | 66 | 0 | 0.0 | 0.0 | 0.00 | 0.00 | 0.00 | 52 | 1016.4 |
| 20260502034003 | 66 | 293 | 1.0 | 2.0 | 0.00 | 0.00 | 0.00 | 50 | 1016.2 |
| 20260502033003 | 66 | 257 | 6.0 | 5.0 | 0.00 | 0.00 | 0.00 | 51 | 1016.1 |
| 20260502032504 | 66 | 252 | 5.0 | 11.0 | 0.00 | 0.00 | 0.00 | 51 | 1015.9 |
| 20260502032003 | 66 | 253 | 4.0 | 5.0 | 0.00 | 0.00 | 0.00 | 51 | 1016.0 |
| 20260502031503 | 66 | 260 | 4.0 | 8.0 | 0.00 | 0.00 | 0.00 | 50 | 1016.0 |
| 20260502031003 | 67 | 267 | 4.0 | 6.0 | 0.00 | 0.00 | 0.00 | 50 | 1015.9 |
| 20260502030503 | 67 | 249 | 6.0 | 7.0 | 0.00 | 0.00 | 0.00 | 50 | 1015.9 |
| 20260502030004 | 67 | 254 | 7.0 | 8.0 | 0.00 | 0.00 | 0.00 | 49 | 1015.8 |
| 20260502025003 | 68 | 262 | 6.0 | 7.0 | 0.00 | 0.00 | 0.00 | 48 | 1015.7 |
| 20260502024503 | 68 | 270 | 6.0 | 10.0 | 0.00 | 0.00 | 0.00 | 48 | 1015.7 |
| 20260502024003 | 68 | 263 | 5.0 | 10.0 | 0.00 | 0.00 | 0.00 | 47 | 1015.6 |
| 20260502023503 | 68 | 251 | 4.0 | 9.0 | 0.00 | 0.00 | 0.00 | 48 | 1015.7 |
| 20260502023003 | 69 | 251 | 6.0 | 4.0 | 0.00 | 0.00 | 0.00 | 48 | 1015.6 |
| 20260502022503 | 69 | 262 | 7.0 | 8.0 | 0.00 | 0.00 | 0.00 | 47 | 1015.5 |
| 20260502022004 | 69 | 259 | 6.0 | 13.0 | 0.00 | 0.00 | 0.00 | 46 | 1015.4 |
| 20260502021503 | 70 | 254 | 7.0 | 9.0 | 0.00 | 0.00 | 0.00 | 45 | 1015.4 |
| 20260502021003 | 70 | 259 | 6.0 | 13.0 | 0.00 | 0.00 | 0.00 | 45 | 1015.5 |
| 20260502020503 | 71 | 267 | 6.0 | 10.0 | 0.00 | 0.00 | 0.00 | 44 | 1015.4 |
| 20260502015503 | 72 | 275 | 5.0 | 8.0 | 0.00 | 0.00 | 0.00 | 43 | 1015.3 |
| 20260502015004 | 72 | 272 | 5.0 | 8.0 | 0.00 | 0.00 | 0.00 | 43 | 1015.4 |
| 20260502014003 | 73 | 258 | 6.0 | 7.0 | 0.00 | 0.00 | 0.00 | 42 | 1015.4 |
| 20260502013003 | 73 | 300 | 5.0 | 14.0 | 0.00 | 0.00 | 0.00 | 40 | 1015.1 |
| 20260502012503 | 74 | 295 | 6.0 | 8.0 | 0.00 | 0.00 | 0.00 | 41 | 1015.3 |
| 20260502012003 | 74 | 317 | 7.0 | 9.0 | 0.00 | 0.00 | 0.00 | 40 | 1015.3 |
| 20260502011503 | 74 | 260 | 7.0 | 15.0 | 0.00 | 0.00 | 0.00 | 41 | 1015.4 |
| 20260502010503 | 74 | 317 | 7.0 | 13.0 | 0.00 | 0.00 | 0.00 | 40 | 1015.2 |
| 20260502005503 | 74 | 305 | 9.0 | 11.0 | 0.00 | 0.00 | 0.00 | 41 | 1015.1 |
| 20260502005003 | 74 | 321 | 8.0 | 14.0 | 0.00 | 0.00 | 0.00 | 40 | 1015.1 |
| 20260502004504 | 74 | 320 | 9.0 | 11.0 | 0.00 | 0.00 | 0.00 | 41 | 1015.2 |
| 20260502004004 | 74 | 320 | 11.0 | 14.0 | 0.00 | 0.00 | 0.00 | 41 | 1015.2 |
| 20260502003503 | 74 | 314 | 11.0 | 13.0 | 0.00 | 0.00 | 0.00 | 40 | 1015.2 |
| 20260502003003 | 74 | 318 | 9.0 | 15.0 | 0.00 | 0.00 | 0.00 | 40 | 1015.1 |
| 20260502002503 | 74 | 314 | 9.0 | 15.0 | 0.00 | 0.00 | 0.00 | 40 | 1015.2 |
| 20260502002004 | 74 | 318 | 10.0 | 12.0 | 0.00 | 0.00 | 0.00 | 40 | 1015.2 |
| 20260502001504 | 74 | 318 | 11.0 | 15.0 | 0.00 | 0.00 | 0.00 | 38 | 1015.2 |
| 20260502001003 | 74 | 318 | 10.0 | 16.0 | 0.00 | 0.00 | 0.00 | 38 | 1015.1 |
| 20260502000503 | 74 | 317 | 9.0 | 18.0 | 0.00 | 0.00 | 0.00 | 38 | 1015.1 |
| 20260502000004 | 74 | 320 | 10.0 | 14.0 | 0.00 | 0.00 | 0.00 | 37 | 1015.2 |
| 20260501235504 | 74 | 321 | 11.0 | 16.0 | 0.00 | 0.00 | 0.00 | 37 | 1015.0 |
| 20260501235004 | 75 | 319 | 11.0 | 15.0 | 0.00 | 0.00 | 0.00 | 38 | 1014.9 |
| 20260501234503 | 74 | 321 | 12.0 | 16.0 | 0.00 | 0.00 | 0.00 | 38 | 1014.8 |
| 20260501234003 | 75 | 316 | 11.0 | 15.0 | 0.00 | 0.00 | 0.00 | 37 | 1014.8 |
| 20260501233503 | 75 | 316 | 10.0 | 17.0 | 0.00 | 0.00 | 0.00 | 37 | 1014.8 |
| 20260501233004 | 76 | 315 | 9.0 | 17.0 | 0.00 | 0.00 | 0.00 | 37 | 1014.9 |
| 20260501232504 | 76 | 309 | 9.0 | 14.0 | 0.00 | 0.00 | 0.00 | 39 | 1015.0 |
| 20260501231504 | 75 | 308 | 9.0 | 16.0 | 0.00 | 0.00 | 0.00 | 38 | 1014.9 |
| 20260501231003 | 75 | 316 | 10.0 | 12.0 | 0.00 | 0.00 | 0.00 | 38 | 1015.0 |
| 20260501230503 | 75 | 307 | 10.0 | 13.0 | 0.00 | 0.00 | 0.00 | 38 | 1015.0 |
| 20260501225504 | 76 | 322 | 10.0 | 15.0 | 0.00 | 0.00 | 0.00 | 37 | 1015.1 |
| 20260501225004 | 76 | 306 | 11.0 | 14.0 | 0.00 | 0.00 | 0.00 | 38 | 1015.2 |
| 20260501224504 | 76 | 317 | 11.0 | 16.0 | 0.00 | 0.00 | 0.00 | 38 | 1015.2 |
| 20260501223503 | 77 | 316 | 8.0 | 12.0 | 0.00 | 0.00 | 0.00 | 39 | 1015.4 |
| 20260501223003 | 76 | 310 | 9.0 | 12.0 | 0.00 | 0.00 | 0.00 | 39 | 1015.4 |
| 20260501222004 | 76 | 297 | 9.0 | 11.0 | 0.00 | 0.00 | 0.00 | 39 | 1015.6 |
| 20260501221504 | 77 | 313 | 8.0 | 17.0 | 0.00 | 0.00 | 0.00 | 38 | 1015.6 |
| 20260501220503 | 76 | 313 | 9.0 | 14.0 | 0.00 | 0.00 | 0.00 | 39 | 1015.8 |
| 20260501220003 | 76 | 315 | 9.0 | 14.0 | 0.00 | 0.00 | 0.00 | 40 | 1015.8 |
| 20260501215004 | 76 | 315 | 10.0 | 14.0 | 0.00 | 0.00 | 0.00 | 41 | 1015.9 |
| 20260501214003 | 77 | 317 | 9.0 | 14.0 | 0.00 | 0.00 | 0.00 | 39 | 1016.0 |
| 20260501213503 | 77 | 297 | 7.0 | 14.0 | 0.00 | 0.00 | 0.00 | 39 | 1016.0 |
| 20260501213003 | 77 | 308 | 9.0 | 17.0 | 0.00 | 0.00 | 0.00 | 39 | 1016.2 |
| 20260501212503 | 77 | 272 | 11.0 | 16.0 | 0.00 | 0.00 | 0.00 | 38 | 1016.2 |
| 20260501212004 | 77 | 255 | 11.0 | 15.0 | 0.00 | 0.00 | 0.00 | 38 | 1016.3 |
| 20260501211504 | 77 | 272 | 8.0 | 19.0 | 0.00 | 0.00 | 0.00 | 38 | 1016.2 |
| 20260501211002 | 77 | 290 | 8.0 | 9.0 | 0.00 | 0.00 | 0.00 | 39 | 1016.3 |
| 20260501210502 | 77 | 293 | 8.0 | 13.0 | 0.00 | 0.00 | 0.00 | 40 | 1016.3 |
| 20260501210003 | 76 | 265 | 7.0 | 16.0 | 0.00 | 0.00 | 0.00 | 41 | 1016.4 |
| 20260501205503 | 75 | 288 | 7.0 | 12.0 | 0.00 | 0.00 | 0.00 | 40 | 1016.2 |
| 20260501205003 | 74 | 282 | 8.0 | 9.0 | 0.00 | 0.00 | 0.00 | 42 | 1016.2 |
| 20260501204502 | 74 | 322 | 10.0 | 15.0 | 0.00 | 0.00 | 0.00 | 43 | 1016.2 |
| 20260501204003 | 74 | 321 | 10.0 | 14.0 | 0.00 | 0.00 | 0.00 | 42 | 1016.2 |
| 20260501203503 | 74 | 324 | 10.0 | 14.0 | 0.00 | 0.00 | 0.00 | 43 | 1016.3 |
| 20260501203003 | 74 | 321 | 10.0 | 13.0 | 0.00 | 0.00 | 0.00 | 43 | 1016.3 |
| 20260501202503 | 74 | 315 | 10.0 | 15.0 | 0.00 | 0.00 | 0.00 | 42 | 1016.4 |
| 20260501202002 | 74 | 322 | 11.0 | 13.0 | 0.00 | 0.00 | 0.00 | 42 | 1016.3 |
| 20260501201502 | 74 | 319 | 11.0 | 18.0 | 0.00 | 0.00 | 0.00 | 40 | 1016.3 |
| 20260501201003 | 74 | 329 | 9.0 | 15.0 | 0.00 | 0.00 | 0.00 | 40 | 1016.4 |
| 20260501200502 | 74 | 326 | 9.0 | 15.0 | 0.00 | 0.00 | 0.00 | 40 | 1016.4 |
| 20260501200003 | 74 | 316 | 8.0 | 17.0 | 0.00 | 0.00 | 0.00 | 40 | 1016.6 |
| 20260501195502 | 74 | 331 | 8.0 | 9.0 | 0.00 | 0.00 | 0.00 | 35 | 1016.6 |
| 20260501195002 | 74 | 323 | 9.0 | 13.0 | 0.00 | 0.00 | 0.00 | 40 | 1016.6 |